Vertical_Velocity
0 -5 -0 15 7 3 -3 -2 -2 1 5 2 -12 -23 -5 7 -0 -2 -1 2 -1 -10 17 6 -10 -4 -5 -11 -1 -0 4 2 1 -0 3 -1 -10 3 -17 1 -2 5 4 3
1 -8 9 2 -1 3 3 1 -7 -4 -1 2 -2 -26 -15 18 -10 -1 -0 -1 -4 -9 -4 2 -18 1 0 -5 10 -1 -4 9 8 2 4 4 5 8 -0 5 -2 -5 -1 0
-6 8 1 -1 -1 2 -1 0 1 4 -4 1 -4 -46 -5 18 -3 -3 -4 -2 1 1 3 -10 -10 5 1 -6 3 11 4 -1 12 8 6 11 -1 -1 1 -4 -1 -4 2 15
-1 3 -2 0 2 5 -2 -2 -0 3 1 -1 3 -28 -10 -14 -1 4 -2 4 6 -5 -1 -8 -11 -6 -4 -10 -10 -2 6 9 3 -1 3 -1 3 5 4 3 4 -4 -1 -3
1 -10 -6 0 -2 -3 0 -2 -1 -3 2 3 2 8 -106 31 -1 -3 -8 -9 -6 4 6 -5 -5 -0 6 -12 1 4 10 4 4 5 -2 -1 5 6 4 5 1 -0 1 -3
1 -1 2 2 -0 5 2 -3 -5 -9 5 6 -11 24 -47 4 6 -6 1 0 -3 -3 -2 7 -5 0 9 4 -12 -2 8 9 3 7 27 -7 -3 -2 1 4 -1 5 3 -0
-6 -1 4 -1 -5 2 5 -1 -6 -5 2 -5 5 -10 6 -0 1 2 -7 -13 4 -1 -2 3 16 20 5 13 14 2 -6 12 8 15 8 -12 -3 -7 -3 -1 2 1 2 2
-1 -5 -6 -1 9 8 -11 5 2 -0 1 -5 -23 -6 -31 -3 5 2 3 -9 -7 -8 1 -4 2 11 4 14 20 19 17 11 -0 1 19 -13 4 -5 -7 -2 2 3 4 1
-2 2 -4 -4 -6 -0 -4 -1 5 6 -5 13 -7 -14 3 4 3 -3 0 -4 -9 -9 -4 5 6 17 15 19 16 20 14 -2 -21 -3 6 -3 1 -1 4 4 -1 0 2 2
3 -6 -4 -1 -5 -6 0 2 -4 2 -2 -1 -6 -0 3 -16 -18 -4 -6 2 2 -6 1 12 17 32 28 19 11 8 9 5 -3 -0 7 2 2 -1 -1 -4 -5 -4 1 3
1 5 -6 4 -0 2 -8 -6 6 8 5 2 1 -1 -7 -20 -5 -5 -2 -3 -3 9 10 15 24 24 -0 22 3 6 1 -19 -6 7 8 10 -3 -4 -3 2 4 -2 -5 1
-4 -2 -3 -3 4 -7 1 -12 6 4 -6 1 2 -9 2 -2 5 4 8 3 7 10 11 12 39 -3 -2 4 2 7 -3 -9 20 -3 13 4 3 0 1 -0 -7 -5 -3 -3
-3 -1 -8 -19 -2 2 0 4 -1 9 6 -3 0 -9 3 2 -2 4 4 6 -6 3 -0 35 42 35 31 3 5 12 -2 4 7 -1 14 1 -1 -3 4 1 2 -3 -4 -4
-1 -2 -5 -6 -5 6 -3 2 8 17 8 -6 -3 -10 5 -7 2 21 -0 3 3 4 8 18 5 31 23 29 10 5 4 3 -2 5 4 1 -1 1 -1 -1 -1 -2 -2 -2
-2 -5 4 -3 -4 4 5 -4 -5 1 4 7 -2 3 3 1 10 8 2 9 7 10 11 16 2 -3 5 -14 7 9 -3 0 1 -3 4 4 -1 -4 -3 -2 -4 -3 -3 -0
2 -5 -1 -8 5 7 5 2 2 7 -1 10 4 3 -1 4 1 -0 7 -1 -8 -5 -14 -11 0 9 4 5 3 -5 -3 -2 -5 2 7 0 -6 -5 -5 -3 -4 -3 -1 0
0 1 2 -4 1 2 4 -2 -1 1 -1 13 -3 -5 1 -1 -3 4 -0 2 -0 -2 -2 -3 -4 -8 -6 1 -12 -9 -3 -3 -1 1 -2 -1 1 5 2 -2 -2 -2 -0 1
-1 3 4 -4 -2 0 -0 -1 -1 8 0 4 1 -3 0 -1 3 -9 -1 -1 -4 -8 -1 4 4 6 2 -1 0 2 -4 -8 1 -1 -5 -8 -7 1 -1 -1 -1 -1 -1 -1
0 5 -0 -2 -0 2 2 3 -4 2 -1 -1 0 1 0 4 7 5 -0 0 -2 -3 -2 -6 -5 -4 -7 -6 -8 -8 -8 -12 -7 -3 -9 -1 3 4 2 -2 -1 -0 -1 -2
3 2 1 -0 2 -1 1 -3 2 3 1 -3 -2 2 -2 -0 -4 -3 2 -1 4 1 1 -4 -1 -4 2 3 -0 1 -3 -1 -5 -1 -6 5 3 -2 -3 -1 -2 0 -2 0
-1 0 -1 1 -1 -0 0 -1 2 1 -5 -1 -1 -5 -5 -0 5 -1 4 10 6 4 1 -2 -5 -2 -2 -6 -7 -3 -3 -1 4 2 0 2 -1 -2 -4 -4 -2 0 -0 -1
-1 -1 -2 0 -0 -3 0 2 -3 -0 2 1 3 3 3 2 1 0 -1 -4 -2 0 6 9 8 8 6 3 4 2 -1 -4 -3 -6 -4 -2 -5 -4 -7 -6 0 3 1 -2
-1 0 -0 -2 -3 -2 -3 -2 -1 -1 1 -0 0 1 -0 -1 -0 -1 -6 -8 -4 1 -1 1 -1 -2 -6 -8 -0 2 -1 1 2 -0 -1 -2 -1 -4 -9 -6 -6 0 0 -3
-2 -0 -1 -1 -2 -2 -2 -1 -1 -0 -1 -2 1 1 2 2 3 4 4 3 5 -2 -3 -2 0 3 -0 3 -1 0 -1 -4 1 -4 -6 -6 -8 -3 -4 -5 -5 -6 -4 -4
2 -0 -0 -0 0 -3 -4 -1 0 2 1 -1 -1 0 1 1 1 -1 -1 -2 -3 -3 -0 1 1 2 -1 1 -4 -4 2 0 -8 -11 -8 -3 -6 -6 -3 -5 0 -5 -3 -4
-0 0 -1 -3 1 0 -1 1 0 0 -0 1 1 -0 -1 -0 1 4 1 0 -0 1 2 1 -2 -2 -1 -1 -1 -2 -5 -8 -5 -5 -6 -6 -7 -2 -3 1 -3 -3 1 4
Height
3076 3077 3076 3077 3075 3072 3069 3066 3062 3064 3066 3062 3060 3048 3041 3050 3050 3051 3052 3052 3053 3052 3054 3055 3055 3054 3054 3057 3060 3061 3068 3073 3077 3079 3080 3081 3082 3086 3089 3091 3093 3094 3095 3097
3074 3073 3074 3072 3072 3070 3067 3063 3059 3057 3059 3059 3053 3042 3038 3042 3042 3044 3044 3045 3046 3045 3045 3046 3045 3044 3044 3045 3048 3052 3058 3064 3068 3070 3072 3073 3077 3080 3082 3085 3086 3088 3089 3091
3070 3071 3069 3068 3067 3067 3065 3062 3058 3055 3051 3050 3048 3034 3032 3034 3035 3037 3038 3037 3037 3037 3037 3038 3038 3035 3037 3037 3038 3042 3049 3054 3060 3061 3063 3066 3067 3071 3074 3077 3080 3081 3082 3082
3065 3066 3064 3063 3062 3061 3059 3058 3055 3053 3049 3045 3045 3033 3016 3025 3025 3029 3031 3032 3030 3032 3033 3033 3030 3029 3030 3031 3033 3038 3042 3046 3050 3054 3056 3059 3061 3064 3067 3070 3071 3072 3072 3074
3064 3063 3062 3060 3058 3056 3055 3054 3053 3050 3047 3044 3027 3037 3016 3020 3016 3021 3024 3023 3022 3022 3021 3022 3021 3022 3024 3028 3031 3036 3037 3039 3042 3046 3049 3052 3055 3058 3060 3060 3061 3061 3062 3064
3059 3061 3060 3057 3055 3054 3051 3049 3047 3045 3043 3037 3029 3032 3020 3017 3016 3012 3013 3013 3011 3011 3010 3013 3015 3018 3018 3020 3024 3030 3031 3034 3037 3041 3044 3047 3047 3049 3050 3050 3049 3051 3053 3054
3056 3057 3056 3054 3052 3051 3049 3046 3042 3040 3036 3030 3028 3024 3018 3016 3014 3009 3005 3001 3001 3003 3004 3006 3010 3012 3014 3015 3017 3021 3027 3029 3033 3035 3038 3039 3040 3041 3041 3041 3041 3042 3045 3047
3055 3053 3053 3052 3051 3049 3048 3050 3050 3047 3038 3035 3033 3023 3016 3016 3011 3006 3002 2996 2993 2993 2993 2996 2999 3003 3007 3011 3013 3016 3017 3025 3031 3033 3033 3033 3033 3033 3034 3034 3035 3035 3036 3039
3055 3052 3050 3051 3049 3050 3046 3047 3047 3042 3038 3033 3025 3018 3015 3010 3005 3002 2995 2990 2987 2986 2985 2986 2990 2995 3001 3004 3008 3011 3011 3018 3023 3026 3026 3026 3025 3026 3026 3026 3026 3027 3028 3030
3054 3048 3047 3047 3046 3046 3044 3042 3040 3040 3039 3030 3017 3013 3009 3006 3002 2997 2991 2987 2982 2980 2978 2981 2983 2990 2994 2997 3001 3005 3007 3010 3015 3018 3018 3019 3018 3018 3019 3019 3019 3019 3020 3022
3051 3048 3045 3043 3043 3042 3040 3037 3037 3036 3033 3026 3019 3012 3010 3007 3001 2994 2988 2985 2982 2977 2976 2979 2981 2981 2985 2989 2993 2999 3001 3006 3012 3012 3009 3011 3010 3011 3010 3010 3010 3012 3012 3013
3047 3044 3041 3041 3039 3039 3039 3038 3036 3034 3029 3024 3021 3015 3009 3006 3000 2994 2988 2983 2977 2972 2973 2978 2976 2976 2982 2984 2989 2994 2996 3003 3007 3006 3005 3005 3004 3005 3004 3004 3004 3004 3005 3005
3045 3044 3044 3041 3041 3039 3039 3037 3034 3031 3027 3022 3021 3013 3010 3006 2999 2992 2988 2982 2976 2978 2972 2970 2971 2975 2977 2982 2987 2991 2993 2997 2997 2999 2999 2999 2999 2999 2999 2998 2997 2997 2998 2999
3043 3044 3045 3044 3039 3037 3033 3031 3030 3029 3025 3020 3014 3011 3009 3004 2998 2993 2989 2985 2981 2977 2973 2967 2970 2968 2975 2979 2983 2988 2989 2991 2993 2993 2992 2992 2992 2993 2993 2993 2991 2989 2989 2990
3042 3040 3040 3036 3034 3033 3031 3028 3026 3023 3021 3018 3011 3009 3007 3004 3001 2995 2991 2989 2985 2979 2977 2976 2977 2976 2976 2978 2980 2980 2984 2987 2987 2987 2986 2985 2986 2985 2985 2984 2984 2983 2981 2981
3039 3037 3035 3029 3029 3029 3028 3026 3023 3020 3016 3014 3010 3007 3005 3003 3000 2998 2993 2989 2988 2984 2982 2979 2977 2976 2977 2978 2979 2981 2981 2982 2982 2980 2979 2979 2978 2978 2977 2975 2975 2974 2974 2973
3037 3035 3033 3026 3025 3024 3025 3022 3020 3018 3015 3010 3009 3007 3003 3002 2999 2995 2992 2991 2989 2986 2984 2983 2981 2981 2980 2979 2980 2980 2978 2977 2975 2974 2972 2971 2970 2968 2965 2964 2964 2964 2964 2964
3034 3033 3031 3025 3024 3024 3024 3021 3018 3016 3013 3011 3009 3005 3003 3000 2998 2996 2992 2988 2987 2986 2984 2983 2980 2978 2977 2975 2976 2974 2972 2969 2968 2967 2967 2965 2963 2960 2958 2956 2955 2956 2955 2955
3034 3031 3028 3026 3024 3024 3022 3019 3014 3011 3010 3008 3006 3002 3000 2998 2995 2992 2990 2986 2984 2982 2980 2976 2974 2972 2971 2970 2968 2966 2964 2963 2961 2959 2958 2956 2954 2951 2949 2949 2948 2947 2947 2947
3032 3030 3028 3025 3023 3021 3020 3017 3011 3007 3008 3006 3003 2999 2996 2994 2992 2990 2988 2985 2983 2980 2976 2973 2970 2968 2967 2965 2964 2961 2959 2957 2954 2951 2950 2947 2945 2943 2941 2941 2940 2939 2939 2939
3029 3028 3026 3023 3021 3019 3018 3014 3011 3010 3013 3004 3001 2998 2995 2993 2991 2986 2983 2981 2978 2975 2973 2971 2967 2964 2962 2960 2958 2956 2953 2949 2946 2943 2941 2938 2936 2935 2934 2933 2932 2932 2931 2930
3028 3026 3025 3022 3020 3019 3016 3014 3012 3010 3006 3003 3000 2997 2993 2990 2986 2983 2980 2976 2973 2970 2968 2965 2961 2959 2957 2955 2953 2949 2945 2942 2939 2937 2934 2931 2928 2927 2925 2924 2923 2922 2922 2921
3027 3026 3025 3024 3020 3017 3015 3012 3010 3007 3005 3002 2999 2996 2992 2989 2986 2983 2980 2977 2972 2968 2964 2960 2957 2953 2950 2947 2944 2941 2939 2935 2932 2928 2925 2922 2920 2917 2916 2915 2913 2911 2911 2911
3024 3023 3022 3020 3018 3015 3012 3010 3009 3007 3005 3002 2999 2995 2992 2989 2986 2983 2980 2976 2972 2968 2964 2960 2956 2951 2946 2941 2936 2933 2930 2927 2923 2920 2916 2912 2910 2908 2905 2904 2902 2900 2898 2898
3022 3021 3020 3018 3016 3013 3010 3009 3007 3006 3003 3001 2998 2995 2992 2988 2985 2981 2978 2974 2970 2966 2961 2956 2951 2946 2943 2939 2934 2930 2925 2920 2917 2912 2907 2903 2899 2896 2893 2890 2890 2888 2886 2886
3019 3019 3018 3016 3014 3012 3010 3008 3006 3004 3002 3000 2997 2994 2991 2988 2984 2980 2976 2972 2969 2965 2960 2956 2951 2946 2941 2936 2933 2929 2924 2918 2912 2907 2901 2894 2889 2884 2881 2881 2880 2879 2879 2877